Time,TemperatureF,DewpointF,PressureIn,WindDirection,WindDirectionDegrees,WindSpeedMPH,WindSpeedGustMPH,Humidity,HourlyPrecipIn,Conditions,Clouds,dailyrainin,SoftwareType,DateUTC
2013-09-17 00:02:00,68.0,65.6,30.05,ESE,112,1.1,-999.0,92,-99.99,,,0.00,Acu-Link.com,2013-09-17 05:02:00,
2013-09-17 00:17:00,67.6,65.2,30.05,ESE,112,1.7,-999.0,92,-99.99,,,0.00,Acu-Link.com,2013-09-17 05:17:00,
2013-09-17 00:33:00,67.3,65.2,30.05,ENE,67,1.7,-999.0,93,-99.99,,,0.00,Acu-Link.com,2013-09-17 05:33:00,
2013-09-17 00:48:00,67.3,65.2,30.04,South,180,1.7,-999.0,93,-99.99,,,0.00,Acu-Link.com,2013-09-17 05:48:00,
2013-09-17 01:03:00,67.3,65.2,30.05,East,90,1.7,-999.0,93,-99.99,,,0.00,Acu-Link.com,2013-09-17 06:03:00,
2013-09-17 01:18:00,67.5,65.4,30.04,ESE,112,3.2,-999.0,93,-99.99,,,0.00,Acu-Link.com,2013-09-17 06:18:00,
2013-09-17 01:34:00,67.5,65.4,30.04,ESE,112,1.7,-999.0,93,-99.99,,,0.00,Acu-Link.com,2013-09-17 06:34:00,
2013-09-17 01:49:00,67.5,65.4,30.04,East,90,1.7,-999.0,93,-99.99,,,0.00,Acu-Link.com,2013-09-17 06:49:00,
2013-09-17 02:04:00,67.5,65.7,30.04,ESE,112,1.7,-999.0,94,-99.99,,,0.00,Acu-Link.com,2013-09-17 07:04:00,
2013-09-17 02:19:00,67.5,65.7,30.03,East,90,2.2,-999.0,94,-99.99,,,0.00,Acu-Link.com,2013-09-17 07:19:00,
2013-09-17 02:35:00,67.3,65.5,30.03,ESE,112,1.7,-999.0,94,-99.99,,,0.00,Acu-Link.com,2013-09-17 07:35:00,
2013-09-17 02:50:00,67.3,65.5,30.03,ESE,112,2.7,-999.0,94,-99.99,,,0.00,Acu-Link.com,2013-09-17 07:50:00,
2013-09-17 03:05:00,67.5,65.7,30.02,ESE,112,2.2,-999.0,94,-99.99,,,0.00,Acu-Link.com,2013-09-17 08:05:00,
2013-09-17 03:20:00,67.3,65.5,30.02,NE,45,1.7,-999.0,94,-99.99,,,0.00,Acu-Link.com,2013-09-17 08:20:00,
2013-09-17 03:36:00,67.3,65.5,30.02,ESE,112,2.2,-999.0,94,-99.99,,,0.00,Acu-Link.com,2013-09-17 08:36:00,
2013-09-17 03:51:00,67.3,65.8,30.02,East,90,1.7,-999.0,95,-99.99,,,0.00,Acu-Link.com,2013-09-17 08:51:00,
2013-09-17 04:06:00,67.1,65.6,30.01,ESE,112,2.7,-999.0,95,-99.99,,,0.00,Acu-Link.com,2013-09-17 09:06:00,
2013-09-17 04:22:00,67.1,65.6,30.01,South,180,1.7,-999.0,95,-99.99,,,0.00,Acu-Link.com,2013-09-17 09:22:00,
2013-09-17 04:37:00,66.9,65.4,30.01,East,90,1.1,-999.0,95,-99.99,,,0.00,Acu-Link.com,2013-09-17 09:37:00,
2013-09-17 04:52:00,66.9,65.4,30.01,ESE,112,1.7,-999.0,95,-99.99,,,0.00,Acu-Link.com,2013-09-17 09:52:00,
2013-09-17 05:08:00,66.7,65.2,30.01,NE,45,2.2,-999.0,95,-99.99,,,0.00,Acu-Link.com,2013-09-17 10:08:00,
2013-09-17 05:23:00,66.7,65.2,30.01,East,90,2.2,-999.0,95,-99.99,,,0.00,Acu-Link.com,2013-09-17 10:23:00,
2013-09-17 05:38:00,66.7,65.2,30.01,NNW,337,2.2,-999.0,95,-99.99,,,0.00,Acu-Link.com,2013-09-17 10:38:00,
2013-09-17 05:53:00,66.6,65.1,30.01,NE,45,2.7,-999.0,95,-99.99,,,0.00,Acu-Link.com,2013-09-17 10:53:00,
2013-09-17 06:09:00,66.4,64.9,30.02,ESE,112,2.2,-999.0,95,-99.99,,,0.00,Acu-Link.com,2013-09-17 11:09:00,
2013-09-17 06:24:00,66.4,64.9,30.02,ESE,112,1.7,-999.0,95,-99.99,,,0.00,Acu-Link.com,2013-09-17 11:24:00,
2013-09-17 06:39:00,66.4,64.9,30.02,SE,135,2.7,-999.0,95,-99.99,,,0.00,Acu-Link.com,2013-09-17 11:39:00,
2013-09-17 06:54:00,66.4,64.9,30.02,ESE,112,2.2,-999.0,95,-99.99,,,0.00,Acu-Link.com,2013-09-17 11:54:00,
2013-09-17 07:10:00,66.2,65.0,30.03,East,90,2.2,-999.0,96,-99.99,,,0.00,Acu-Link.com,2013-09-17 12:10:00,
2013-09-17 07:25:00,66.0,64.8,30.03,ESE,112,2.2,-999.0,96,-99.99,,,0.00,Acu-Link.com,2013-09-17 12:25:00,
2013-09-17 07:40:00,66.2,65.0,30.03,East,90,2.7,-999.0,96,-99.99,,,0.00,Acu-Link.com,2013-09-17 12:40:00,
2013-09-17 07:56:00,66.9,65.4,30.02,ESE,112,2.7,-999.0,95,-99.99,,,0.00,Acu-Link.com,2013-09-17 12:56:00,
2013-09-17 08:12:00,67.6,65.5,30.03,ESE,112,3.7,-999.0,93,-99.99,,,0.00,Acu-Link.com,2013-09-17 13:12:00,
2013-09-17 08:27:00,68.4,66.0,30.04,ESE,112,3.7,-999.0,92,-99.99,,,0.00,Acu-Link.com,2013-09-17 13:27:00,
2013-09-17 08:42:00,69.8,66.7,30.04,ESE,112,1.7,-999.0,90,-99.99,,,0.00,Acu-Link.com,2013-09-17 13:42:00,
2013-09-17 08:57:00,70.7,67.0,30.04,SSE,157,2.7,-999.0,88,-99.99,,,0.00,Acu-Link.com,2013-09-17 13:57:00,
2013-09-17 09:13:00,72.0,66.9,30.04,West,270,4.2,-999.0,84,-99.99,,,0.00,Acu-Link.com,2013-09-17 14:13:00,
2013-09-17 09:28:00,72.0,67.6,30.05,ESE,112,2.7,-999.0,86,-99.99,,,0.00,Acu-Link.com,2013-09-17 14:28:00,
2013-09-17 09:43:00,72.5,67.0,30.04,SE,135,4.7,-999.0,83,-99.99,,,0.00,Acu-Link.com,2013-09-17 14:43:00,
2013-09-17 09:59:00,71.8,66.7,30.05,SE,135,8.3,-999.0,84,-99.99,,,0.00,Acu-Link.com,2013-09-17 14:59:00,
2013-09-17 10:14:00,72.9,67.1,30.05,South,180,4.2,-999.0,82,-99.99,,,0.00,Acu-Link.com,2013-09-17 15:14:00,
2013-09-17 10:30:00,73.6,67.8,30.04,ESE,112,5.3,-999.0,82,-99.99,,,0.00,Acu-Link.com,2013-09-17 15:30:00,
2013-09-17 10:45:00,73.8,67.6,30.04,SSE,157,4.7,-999.0,81,-99.99,,,0.00,Acu-Link.com,2013-09-17 15:45:00,
2013-09-17 11:00:00,73.9,67.7,30.04,NE,45,3.7,-999.0,81,-99.99,,,0.00,Acu-Link.com,2013-09-17 16:00:00,
2013-09-17 11:16:00,74.1,67.5,30.04,ESE,112,1.7,-999.0,80,-99.99,,,0.00,Acu-Link.com,2013-09-17 16:16:00,
2013-09-17 11:31:00,74.5,67.5,30.04,SE,135,3.2,-999.0,79,-99.99,,,0.00,Acu-Link.com,2013-09-17 16:31:00,
2013-09-17 11:46:00,75.4,67.7,30.04,SSE,157,1.7,-999.0,77,-99.99,,,0.00,Acu-Link.com,2013-09-17 16:46:00,
2013-09-17 12:01:00,75.6,68.6,30.03,East,90,2.7,-999.0,79,-99.99,,,0.00,Acu-Link.com,2013-09-17 17:01:00,
2013-09-17 12:16:00,78.1,69.9,30.03,NE,45,2.7,-999.0,76,-99.99,,,0.00,Acu-Link.com,2013-09-17 17:16:00,
2013-09-17 12:32:00,77.5,68.9,30.03,NNE,22,1.7,-999.0,75,-99.99,,,0.00,Acu-Link.com,2013-09-17 17:32:00,
2013-09-17 12:47:00,80.1,68.1,30.03,ESE,112,2.7,-999.0,67,-99.99,,,0.00,Acu-Link.com,2013-09-17 17:47:00,
2013-09-17 13:02:00,78.3,68.1,30.02,SW,225,2.2,-999.0,71,-99.99,,,0.00,Acu-Link.com,2013-09-17 18:02:00,
2013-09-17 13:17:00,79.3,67.4,30.01,SSE,157,2.2,-999.0,67,-99.99,,,0.00,Acu-Link.com,2013-09-17 18:17:00,
2013-09-17 13:33:00,79.2,68.1,30.01,ESE,112,0.0,-999.0,69,-99.99,,,0.00,Acu-Link.com,2013-09-17 18:33:00,
2013-09-17 13:48:00,78.8,68.6,30.00,SSE,157,2.7,-999.0,71,-99.99,,,0.00,Acu-Link.com,2013-09-17 18:48:00,
2013-09-17 14:03:00,78.3,67.7,29.99,SE,135,2.2,-999.0,70,-99.99,,,0.00,Acu-Link.com,2013-09-17 19:03:00,
2013-09-17 14:19:00,78.3,68.1,29.98,ESE,112,1.7,-999.0,71,-99.99,,,0.00,Acu-Link.com,2013-09-17 19:19:00,
2013-09-17 14:34:00,80.2,67.3,29.97,SE,135,2.2,-999.0,65,-99.99,,,0.00,Acu-Link.com,2013-09-17 19:34:00,
2013-09-17 14:49:00,80.8,68.4,29.98,East,90,1.7,-999.0,66,-99.99,,,0.00,Acu-Link.com,2013-09-17 19:49:00,
2013-09-17 15:05:00,80.1,67.3,29.97,SSE,157,1.7,-999.0,65,-99.99,,,0.00,Acu-Link.com,2013-09-17 20:05:00,
2013-09-17 15:20:00,80.2,67.8,29.97,East,90,1.7,-999.0,66,-99.99,,,0.00,Acu-Link.com,2013-09-17 20:20:00,
2013-09-17 15:35:00,81.7,69.2,29.96,West,270,1.1,-999.0,66,-99.99,,,0.00,Acu-Link.com,2013-09-17 20:35:00,
2013-09-17 15:50:00,80.4,68.4,29.96,ESE,112,1.7,-999.0,67,-99.99,,,0.00,Acu-Link.com,2013-09-17 20:50:00,
2013-09-17 16:06:00,80.8,68.8,29.95,ESE,112,1.7,-999.0,67,-99.99,,,0.00,Acu-Link.com,2013-09-17 21:06:00,
2013-09-17 16:21:00,80.4,69.7,29.94,ESE,112,2.7,-999.0,70,-99.99,,,0.00,Acu-Link.com,2013-09-17 21:21:00,
2013-09-17 16:36:00,80.2,69.5,29.94,WNW,292,1.7,-999.0,70,-99.99,,,0.00,Acu-Link.com,2013-09-17 21:36:00,
2013-09-17 16:51:00,81.7,69.2,29.94,ESE,112,2.7,-999.0,66,-99.99,,,0.00,Acu-Link.com,2013-09-17 21:51:00,
2013-09-17 17:07:00,81.0,69.4,29.94,East,90,2.7,-999.0,68,-99.99,,,0.00,Acu-Link.com,2013-09-17 22:07:00,
2013-09-17 17:22:00,81.0,69.4,29.93,ESE,112,1.1,-999.0,68,-99.99,,,0.00,Acu-Link.com,2013-09-17 22:22:00,
2013-09-17 17:37:00,79.7,70.3,29.93,East,90,2.2,-999.0,73,-99.99,,,0.00,Acu-Link.com,2013-09-17 22:37:00,
2013-09-17 17:53:00,79.2,70.6,29.93,North,0,2.2,-999.0,75,-99.99,,,0.00,Acu-Link.com,2013-09-17 22:53:00,
2013-09-17 18:08:00,78.8,71.0,29.93,ESE,112,0.0,-999.0,77,-99.99,,,0.00,Acu-Link.com,2013-09-17 23:08:00,
2013-09-17 18:23:00,78.4,71.0,29.93,NNW,337,1.1,-999.0,78,-99.99,,,0.00,Acu-Link.com,2013-09-17 23:23:00,
2013-09-17 18:39:00,77.5,70.5,29.92,ESE,112,2.7,-999.0,79,-99.99,,,0.00,Acu-Link.com,2013-09-17 23:39:00,
2013-09-17 18:57:00,76.8,70.1,29.92,East,90,1.7,-999.0,80,-99.99,,,0.00,Acu-Link.com,2013-09-17 23:57:00,
2013-09-17 19:13:00,76.1,70.2,29.92,ESE,112,0.0,-999.0,82,-99.99,,,0.00,Acu-Link.com,2013-09-18 00:13:00,
2013-09-17 19:28:00,75.4,69.9,29.92,ENE,67,1.1,-999.0,83,-99.99,,,0.00,Acu-Link.com,2013-09-18 00:28:00,
2013-09-17 19:43:00,75.0,69.5,29.92,ESE,112,1.1,-999.0,83,-99.99,,,0.00,Acu-Link.com,2013-09-18 00:43:00,
2013-09-17 20:07:00,74.3,69.1,29.92,East,90,0.0,-999.0,84,-99.99,,,0.00,Acu-Link.com,2013-09-18 01:07:00,
2013-09-17 20:23:00,73.9,69.1,29.92,ESE,112,1.7,-999.0,85,-99.99,,,0.00,Acu-Link.com,2013-09-18 01:23:00,
2013-09-17 20:39:00,73.4,68.9,29.92,East,90,0.0,-999.0,86,-99.99,,,0.00,Acu-Link.com,2013-09-18 01:39:00,
2013-09-17 20:54:00,72.7,68.6,29.92,ESE,112,0.0,-999.0,87,-99.99,,,0.00,Acu-Link.com,2013-09-18 01:54:00,
2013-09-17 21:10:00,72.1,68.3,29.92,South,180,0.0,-999.0,88,-99.99,,,0.00,Acu-Link.com,2013-09-18 02:10:00,
2013-09-17 21:25:00,72.0,68.2,29.92,ESE,112,1.7,-999.0,88,-99.99,,,0.00,Acu-Link.com,2013-09-18 02:25:00,
2013-09-17 21:40:00,71.6,68.2,29.93,SSE,157,1.7,-999.0,89,-99.99,,,0.00,Acu-Link.com,2013-09-18 02:40:00,
2013-09-17 21:59:00,71.2,68.1,29.95,ESE,112,0.0,-999.0,90,-99.99,,,0.00,Acu-Link.com,2013-09-18 02:59:00,
2013-09-17 22:14:00,70.9,68.1,29.94,NE,45,0.0,-999.0,91,-99.99,,,0.00,Acu-Link.com,2013-09-18 03:14:00,
2013-09-17 22:30:00,70.7,67.9,29.93,NE,45,0.0,-999.0,91,-99.99,,,0.00,Acu-Link.com,2013-09-18 03:30:00,
2013-09-17 22:45:00,70.5,67.7,29.94,NE,45,0.0,-999.0,91,-99.99,,,0.00,Acu-Link.com,2013-09-18 03:45:00,
2013-09-17 23:08:00,70.7,67.9,29.93,ESE,112,0.0,-999.0,91,-99.99,,,0.00,Acu-Link.com,2013-09-18 04:08:00,
2013-09-17 23:23:00,70.7,67.9,29.92,ESE,112,0.0,-999.0,91,-99.99,,,0.00,Acu-Link.com,2013-09-18 04:23:00,
2013-09-17 23:38:00,70.5,67.7,29.93,ESE,112,3.2,-999.0,91,-99.99,,,0.00,Acu-Link.com,2013-09-18 04:38:00,
2013-09-17 23:54:00,70.3,67.2,29.93,ESE,112,0.0,-999.0,90,-99.99,,,0.00,Acu-Link.com,2013-09-18 04:54:00,